Temp
10 10 10 9 8 7 7 7 7 7 7 7 7 7 7 7 6 6 6 6 6 6 6 6 6 6 6 6 6 6 5 6 6 6 6 6 7 6 6 5 5 5 5
9 9 9 10 9 8 7 7 7 7 6 6 6 6 6 7 6 6 6 6 6 6 6 7 6 6 6 6 6 6 5 5 6 6 6 6 5 6 5 5 4 5 4
9 9 9 9 9 9 9 8 7 7 7 6 6 7 6 6 6 6 6 6 6 6 6 6 6 6 6 6 6 6 5 5 5 6 5 5 5 5 5 4 3 4 4
9 9 9 8 9 9 9 8 7 7 7 6 6 6 6 6 6 6 6 6 6 5 5 5 5 5 5 5 5 5 4 5 5 5 5 5 5 5 4 3 2 3 4
9 9 9 8 8 8 9 8 8 7 7 6 6 6 6 6 6 6 6 6 5 5 5 5 5 5 5 4 4 4 4 5 5 4 5 4 4 4 4 4 3 3 3
9 9 9 8 8 7 7 8 8 8 7 7 6 6 6 6 6 6 5 5 5 5 5 5 5 4 4 4 4 4 4 4 4 4 4 4 4 3 2 3 3 3 3
8 8 8 8 7 7 7 7 7 6 6 6 5 5 5 6 6 5 5 5 5 5 5 5 5 4 4 4 4 4 4 4 3 3 3 3 3 3 3 3 2 3 3
8 7 7 7 6 7 6 6 6 6 6 6 5 5 5 5 5 6 5 5 5 5 5 4 4 4 4 3 4 3 3 3 3 3 2 3 3 3 2 2 2 2 2
8 7 7 8 6 5 5 5 5 6 5 5 5 5 5 5 5 5 5 5 5 5 5 5 4 4 4 3 3 3 2 2 2 3 3 3 3 2 2 2 1 2 2
8 8 7 7 6 5 5 5 5 5 5 4 4 4 4 4 4 4 4 4 4 4 4 4 2 2 3 2 2 2 2 2 2 2 2 2 2 2 2 2 2 2 1
8 7 7 6 5 5 5 5 4 5 4 4 4 3 3 3 3 3 3 3 2 3 2 2 2 3 3 2 2 2 2 2 2 2 2 2 1 1 1 1 1 -0 -1
7 6 5 5 5 5 5 4 4 4 4 4 3 3 3 3 3 3 3 2 2 2 2 2 2 1 1 1 1 1 1 0 0 0 1 0 0 0 0 1 0 -2 -0
5 4 5 6 5 4 5 4 4 3 3 3 3 3 3 3 2 2 2 2 2 2 2 1 0 0 1 0 1 1 0 0 -0 -0 0 0 0 0 1 0 -1 -1 -1
4 5 5 5 5 4 4 4 3 4 4 3 3 3 3 2 2 2 2 1 1 1 1 1 0 -0 -0 0 0 0 0 1 0 0 -0 -1 -1 -1 -1 -2 -2 -2 -2
3 4 4 5 5 5 4 2 3 3 3 3 3 3 2 2 1 1 1 1 1 1 1 1 1 0 0 0 0 -0 -1 -1 -1 -1 -2 -2 -2 -3 -3 -3 -3 -4 -4
3 3 4 4 4 3 2 3 2 2 2 2 2 2 1 1 1 2 2 1 1 1 1 0 -0 -0 -1 -1 -1 -2 -2 -2 -3 -3 -3 -3 -3 -4 -4 -5 -5 -5 -5
3 3 3 3 2 2 2 2 2 2 2 2 2 2 2 2 1 1 1 1 0 -0 -0 -1 -2 -2 -2 -3 -3 -3 -3 -3 -4 -4 -4 -4 -5 -5 -5 -6 -6 -6 -6
2 2 2 1 1 1 2 2 2 2 2 2 2 1 1 1 0 -0 -1 -1 -1 -2 -2 -2 -3 -3 -3 -3 -3 -4 -4 -4 -4 -5 -5 -5 -6 -6 -7 -7 -7 -7 -7
2 2 2 2 2 3 2 2 2 2 2 1 1 0 -0 -0 -1 -2 -2 -3 -2 -2 -3 -3 -3 -3 -4 -4 -5 -5 -5 -5 -5 -5 -6 -7 -7 -7 -7 -7 -8 -8 -8
2 2 2 0 0 0 0 1 1 0 1 1 -1 -2 -1 -1 -2 -2 -3 -3 -3 -3 -4 -5 -4 -4 -4 -4 -5 -5 -6 -6 -6 -6 -7 -7 -8 -8 -8 -8 -8 -9 -9
-1 -1 -3 -2 -5 -3 -4 -4 -4 -3 -2 -1 -2 -2 -3 -3 -3 -2 -3 -3 -4 -4 -4 -5 -5 -5 -5 -5 -6 -6 -7 -6 -6 -7 -9 -8 -8 -8 -8 -9 -9 -9 -9
-2 -2 -4 -3 -4 -4 -3 -3 -3 -4 -3 -3 -4 -3 -3 -3 -3 -4 -4 -3 -4 -4 -5 -5 -5 -6 -6 -6 -7 -6 -7 -7 -7 -9 -9 -9 -9 -9 -9 -9 -9 -9 -9
-3 -3 -4 -3 -4 -3 -4 -4 -3 -2 -3 -3 -3 -3 -4 -4 -4 -4 -4 -4 -5 -5 -4 -5 -5 -6 -6 -7 -7 -7 -8 -7 -8 -8 -9 -9 -9 -9 -9 -9 -9 -9 -9
-3 -3 -3 -3 -3 -4 -4 -4 -4 -4 -3 -3 -3 -3 -3 -4 -4 -4 -4 -5 -5 -5 -4 -5 -6 -6 -7 -7 -7 -7 -7 -8 -8 -8 -8 -9 -9 -9 -9 -9 -9 -9 -9
-3 -2 -4 -4 -4 -4 -4 -4 -4 -3 -5 -6 -5 -4 -4 -4 -4 -4 -4 -5 -5 -5 -5 -5 -6 -6 -6 -6 -7 -7 -7 -8 -8 -8 -8 -9 -9 -9 -9 -9 -9 -9 -9
-3 -3 -3 -4 -4 -5 -4 -5 -5 -5 -5 -4 -4 -4 -4 -4 -4 -4 -4 -5 -5 -5 -5 -5 -5 -5 -6 -6 -7 -7 -7 -8 -8 -8 -8 -8 -9 -9 -9 -9 -9 -9 -9
Height
3150 3148 3145 3142 3139 3136 3133 3131 3129 3128 3128 3128 3127 3127 3127 3129 3131 3135 3138 3142 3145 3147 3149 3152 3155 3157 3160 3160 3160 3162 3162 3166 3168 3170 3170 3171 3170 3171 3168 3167 3169 3169 3173
3149 3148 3147 3144 3141 3139 3137 3135 3133 3132 3130 3128 3127 3128 3128 3130 3131 3134 3137 3140 3141 3144 3147 3150 3152 3153 3155 3155 3156 3154 3156 3160 3164 3165 3166 3166 3165 3163 3162 3165 3165 3165 3169
3147 3148 3147 3145 3142 3140 3137 3136 3134 3133 3130 3130 3129 3130 3130 3130 3131 3133 3136 3137 3139 3141 3144 3145 3147 3149 3151 3151 3151 3152 3153 3155 3158 3160 3160 3161 3161 3161 3159 3158 3162 3164 3167
3147 3146 3146 3144 3143 3140 3137 3136 3135 3134 3132 3131 3131 3131 3131 3132 3132 3133 3134 3134 3134 3137 3139 3141 3144 3145 3146 3146 3147 3148 3149 3151 3154 3154 3153 3154 3155 3154 3153 3155 3157 3161 3163
3145 3144 3143 3142 3141 3139 3138 3136 3134 3134 3133 3133 3132 3133 3132 3133 3133 3133 3134 3135 3136 3136 3137 3137 3139 3140 3142 3142 3143 3143 3145 3146 3146 3145 3147 3148 3149 3149 3148 3149 3153 3157 3158
3142 3142 3141 3139 3138 3137 3136 3136 3135 3134 3133 3133 3134 3134 3134 3134 3134 3134 3134 3134 3134 3135 3135 3135 3137 3137 3137 3138 3138 3139 3140 3140 3139 3140 3140 3142 3143 3144 3146 3147 3148 3151 3154
3138 3137 3136 3136 3135 3134 3133 3134 3134 3134 3134 3134 3134 3134 3134 3133 3133 3132 3131 3132 3133 3133 3133 3135 3135 3135 3135 3134 3134 3134 3134 3135 3136 3137 3138 3138 3140 3141 3142 3143 3145 3147 3147
3135 3132 3132 3133 3133 3131 3131 3132 3133 3134 3134 3133 3133 3133 3132 3132 3132 3132 3132 3131 3131 3131 3132 3132 3132 3132 3133 3132 3132 3132 3133 3133 3134 3135 3136 3137 3138 3139 3140 3141 3142 3141 3141
3130 3129 3128 3129 3130 3129 3130 3131 3131 3132 3132 3131 3131 3131 3131 3131 3131 3131 3131 3131 3131 3130 3130 3130 3130 3130 3131 3131 3131 3130 3131 3131 3131 3132 3133 3134 3134 3134 3135 3135 3135 3135 3132
3125 3125 3125 3126 3126 3127 3128 3129 3130 3130 3130 3129 3128 3128 3128 3129 3129 3129 3129 3128 3128 3128 3127 3127 3126 3127 3127 3128 3128 3128 3128 3129 3129 3129 3128 3128 3128 3128 3129 3127 3125 3124 3124
3120 3120 3121 3122 3123 3125 3125 3126 3126 3127 3127 3125 3126 3125 3125 3124 3124 3125 3126 3125 3125 3125 3125 3124 3124 3124 3124 3124 3124 3124 3124 3124 3124 3123 3123 3120 3120 3121 3120 3116 3115 3113 3112
3113 3114 3115 3119 3120 3121 3122 3122 3123 3123 3123 3123 3122 3122 3120 3120 3120 3121 3122 3123 3121 3120 3120 3118 3118 3118 3118 3118 3118 3117 3116 3116 3115 3115 3113 3111 3109 3108 3108 3106 3103 3101 3103
3111 3112 3113 3114 3116 3116 3117 3117 3119 3119 3118 3118 3117 3119 3118 3118 3117 3118 3118 3117 3117 3117 3115 3114 3113 3113 3113 3112 3112 3112 3110 3109 3107 3105 3104 3102 3100 3100 3097 3097 3095 3095 3092
3109 3110 3110 3111 3111 3113 3115 3116 3115 3115 3116 3115 3115 3116 3115 3114 3115 3115 3115 3114 3113 3112 3111 3110 3110 3109 3108 3107 3107 3107 3105 3102 3100 3098 3096 3094 3093 3090 3089 3088 3086 3085 3085
3107 3109 3108 3110 3110 3112 3112 3113 3113 3112 3112 3113 3113 3113 3113 3113 3112 3112 3111 3110 3109 3109 3108 3107 3106 3105 3103 3102 3102 3100 3097 3094 3093 3091 3089 3088 3086 3083 3082 3079 3078 3077 3076
3106 3107 3108 3108 3108 3109 3109 3110 3110 3110 3110 3110 3110 3110 3110 3109 3109 3108 3107 3107 3106 3105 3104 3102 3101 3100 3098 3096 3094 3094 3091 3090 3088 3086 3084 3082 3080 3077 3075 3073 3072 3071 3070
3105 3106 3106 3106 3107 3108 3108 3108 3108 3108 3107 3108 3108 3108 3107 3107 3105 3105 3104 3103 3101 3101 3099 3098 3096 3096 3094 3093 3091 3089 3087 3086 3083 3080 3078 3076 3074 3071 3069 3067 3065 3064 3064
3104 3105 3105 3105 3106 3107 3107 3107 3107 3106 3106 3106 3106 3105 3104 3102 3101 3100 3099 3098 3098 3097 3096 3095 3094 3092 3091 3089 3087 3084 3082 3079 3078 3075 3073 3071 3069 3066 3064 3062 3061 3060 3059
3104 3105 3106 3107 3107 3106 3106 3106 3105 3104 3105 3104 3102 3101 3100 3099 3098 3097 3096 3095 3095 3094 3093 3092 3091 3089 3088 3086 3082 3080 3077 3075 3074 3071 3068 3066 3064 3062 3060 3059 3057 3056 3055
3106 3106 3104 3104 3104 3103 3102 3101 3099 3100 3101 3102 3100 3098 3097 3097 3097 3097 3096 3095 3093 3092 3090 3086 3085 3084 3083 3082 3079 3075 3072 3069 3068 3067 3064 3061 3060 3058 3057 3055 3054 3053 3052
3105 3106 3107 3106 3107 3107 3107 3106 3104 3099 3097 3097 3098 3097 3096 3096 3095 3094 3093 3092 3091 3090 3088 3086 3082 3079 3076 3075 3074 3071 3067 3065 3063 3061 3059 3057 3055 3054 3053 3052 3051 3050 3049
3106 3107 3108 3107 3108 3108 3107 3104 3102 3100 3095 3095 3095 3096 3095 3094 3092 3092 3091 3090 3088 3087 3085 3083 3080 3076 3073 3071 3069 3067 3064 3062 3061 3058 3056 3054 3053 3051 3051 3050 3049 3047 3046
3107 3106 3106 3106 3106 3105 3104 3102 3098 3096 3095 3096 3095 3095 3094 3093 3091 3090 3089 3087 3084 3082 3081 3079 3076 3074 3071 3067 3066 3064 3062 3059 3057 3055 3054 3052 3050 3049 3048 3047 3045 3045 3044
3105 3104 3104 3103 3103 3101 3100 3098 3095 3093 3093 3092 3092 3091 3090 3089 3088 3086 3085 3083 3081 3078 3077 3076 3074 3071 3069 3066 3064 3061 3059 3057 3055 3053 3051 3049 3048 3047 3046 3045 3044 3043 3042
3102 3102 3101 3099 3098 3097 3096 3095 3093 3091 3091 3091 3089 3089 3088 3087 3085 3083 3082 3080 3078 3076 3074 3072 3070 3069 3067 3064 3062 3060 3058 3056 3054 3052 3050 3048 3047 3045 3044 3044 3043 3042 3042
3099 3098 3097 3096 3095 3094 3092 3091 3090 3088 3089 3089 3088 3086 3085 3083 3081 3080 3078 3077 3074 3073 3071 3069 3068 3067 3064 3062 3060 3058 3056 3054 3052 3050 3048 3047 3046 3045 3044 3043 3042 3042 3041
Wind_Speed
12 15 17 17 14 17 20 19 11 12 12 11 5 1 2 8 14 16 21 20 21 22 23 23 23 21 27 23 27 25 31 21 18 18 20 17 20 16 21 20 11 8 10
8 12 15 15 14 10 7 11 12 13 12 12 6 6 3 4 10 15 16 17 20 22 23 25 22 19 22 22 25 13 21 21 20 18 18 18 18 17 19 16 16 12 8
5 8 10 12 12 12 10 10 12 12 10 11 10 7 4 3 4 8 12 15 15 17 22 25 23 23 23 25 29 22 24 19 19 18 16 21 23 27 22 13 9 9 12
7 9 10 10 10 11 10 8 8 9 9 9 7 5 5 3 1 0 3 9 12 18 20 21 19 22 27 24 23 21 26 20 22 22 20 20 21 21 12 12 15 15 17
7 11 12 11 10 10 10 9 7 5 4 6 6 5 6 4 1 3 2 2 4 8 13 20 18 17 19 15 18 21 23 27 22 21 25 25 22 17 22 17 13 18 17
10 11 11 12 12 11 11 10 8 4 3 4 6 5 4 3 2 3 7 8 9 8 11 14 12 11 12 14 13 19 20 21 23 18 18 24 14 10 12 15 15 16 17
16 17 15 12 11 12 12 10 6 4 4 5 5 5 5 6 6 3 6 6 7 8 7 6 10 11 14 18 21 21 22 20 14 13 7 7 7 9 10 13 16 17 18
19 20 17 15 12 11 9 5 3 4 5 8 9 9 9 9 7 5 5 1 2 4 6 6 7 6 6 6 7 6 7 10 9 8 9 12 14 15 16 17 18 21 24
22 22 23 21 14 8 7 4 5 7 9 9 10 9 9 8 6 6 6 7 8 9 10 11 12 13 12 8 9 11 10 10 12 14 16 19 22 24 25 26 26 28 31
22 21 21 18 15 9 8 9 11 8 11 10 12 12 13 13 12 15 9 8 9 9 11 11 9 12 12 12 11 15 15 17 18 20 25 25 27 29 30 31 31 34 35
18 17 15 15 13 11 12 10 11 11 11 12 14 14 16 19 19 11 11 9 11 11 15 16 16 16 16 14 15 17 23 27 26 25 29 31 34 34 34 36 38 42 30
11 9 10 12 10 13 16 16 11 15 15 15 16 15 12 14 12 14 16 9 12 17 21 22 13 13 14 17 22 25 26 32 31 31 37 43 45 48 45 43 36 28 28
3 5 7 16 14 12 11 11 14 13 11 12 10 7 8 10 9 12 13 10 15 16 13 14 12 16 19 20 22 25 24 28 27 24 24 27 29 28 28 29 29 28 29
5 5 5 12 13 12 15 14 11 9 11 13 10 8 11 9 9 9 11 12 14 13 13 14 14 14 16 15 18 21 22 24 24 25 26 28 29 28 27 27 29 29 26
7 9 9 13 12 13 12 9 10 10 9 9 9 9 8 7 8 11 11 10 10 11 12 13 14 16 18 19 19 18 20 21 22 22 22 23 25 25 24 25 25 24 22
5 6 6 7 8 5 6 8 7 8 8 7 6 7 8 8 8 10 11 12 13 13 14 15 15 16 17 17 18 16 17 17 18 18 18 19 20 20 19 21 21 21 20
1 2 5 6 7 7 6 4 4 4 3 3 4 6 7 9 10 11 13 14 14 13 12 12 13 13 14 14 15 15 15 15 16 17 19 19 18 17 16 18 19 19 18
3 3 3 3 4 4 3 3 3 4 5 6 8 9 9 10 10 10 10 9 10 10 9 9 10 12 13 14 15 16 17 17 17 18 18 17 17 17 17 15 15 16 14
4 4 5 5 5 5 3 4 4 5 6 6 8 7 7 7 8 8 7 9 11 12 13 13 13 14 15 16 18 18 19 18 17 17 16 16 15 14 14 14 14 15 13
6 3 3 5 5 5 9 12 17 17 15 10 8 9 9 7 6 3 4 8 11 13 16 20 21 22 21 19 17 19 21 21 19 16 15 15 14 14 13 12 12 12 13
6 4 1 2 1 5 13 17 21 21 20 18 10 5 5 5 7 9 11 13 14 15 15 16 20 23 24 21 18 17 19 21 20 18 16 14 13 14 13 11 10 9 11
4 3 1 1 7 14 13 15 14 15 18 12 6 3 4 7 10 11 13 14 14 14 14 15 16 18 22 22 19 17 16 17 16 13 13 13 13 13 11 11 10 8 11
3 4 6 10 15 16 14 18 14 11 8 4 3 4 6 8 11 13 14 14 15 16 16 16 16 17 17 17 17 16 14 15 15 12 13 14 13 11 9 10 10 9 8
7 8 11 16 17 17 17 19 11 6 6 4 6 9 11 13 14 16 15 14 15 17 17 14 11 12 12 12 12 13 13 13 13 12 11 11 10 9 9 9 7 5 4
12 12 12 17 18 19 19 18 17 9 8 11 13 14 15 14 15 15 13 12 14 15 14 14 13 11 12 12 12 11 10 11 11 11 10 9 8 7 7 5 4 4 4
14 19 18 18 20 16 14 13 16 16 18 15 15 15 15 16 16 14 12 11 13 15 14 14 14 9 11 12 11 10 10 10 10 10 9 8 7 6 5 3 3 3 3
Wind_Direction
20 20 16 26 36 50 57 52 49 50 47 25 348 255 211 210 210 210 211 215 218 221 225 235 242 252 248 241 246 244 227 233 237 247 254 264 267 268 247 251 246 233 248
15 15 14 22 30 32 22 20 20 24 34 47 83 65 92 153 194 200 210 223 228 235 236 248 251 250 254 245 266 223 208 219 240 256 261 258 284 251 255 267 269 233 217
345 357 1 11 18 27 23 16 16 17 17 33 70 78 96 94 160 187 217 222 223 234 245 247 251 255 258 266 243 232 247 242 252 256 253 250 250 260 261 222 205 213 223
352 342 340 345 359 6 10 10 24 21 36 42 46 76 101 107 114 112 271 268 240 235 240 246 256 266 257 254 246 248 254 257 261 249 253 253 263 252 240 228 210 226 237
334 338 334 326 336 353 342 345 357 20 36 35 42 42 73 80 241 229 179 261 263 258 259 246 247 248 270 286 276 271 265 262 251 275 272 262 261 255 252 251 226 234 235
316 320 325 313 319 329 325 316 320 345 334 359 21 54 59 31 24 254 250 245 242 248 248 243 252 268 277 269 273 257 265 260 259 256 275 273 230 242 243 242 246 245 248
311 307 310 307 306 298 304 310 300 336 350 349 355 349 2 354 347 311 264 261 275 258 286 265 263 264 268 266 265 262 264 254 243 253 233 241 248 264 255 250 253 255 252
293 290 294 297 281 301 308 281 302 301 325 317 324 331 334 339 343 341 15 323 236 230 243 251 260 260 259 259 257 245 244 238 238 248 258 255 251 247 249 250 261 264 261
285 281 280 293 295 306 289 259 286 302 321 319 310 310 309 304 317 332 306 274 268 266 264 262 259 258 257 244 279 279 272 267 263 262 262 264 262 261 260 260 259 259 264
278 275 275 283 284 286 267 254 279 279 273 284 293 302 304 290 296 307 301 298 301 302 288 280 281 286 270 262 263 271 269 261 257 263 266 265 268 266 267 267 264 257 255
269 258 256 251 267 263 269 261 280 273 270 268 283 286 295 295 286 289 291 291 291 296 292 275 278 278 280 267 259 272 269 269 270 272 277 275 282 272 276 273 271 268 271
261 247 235 241 237 255 257 258 272 272 276 281 281 292 293 278 278 290 269 289 317 296 290 267 253 281 277 268 271 276 257 266 275 270 268 271 273 279 279 280 270 267 282
229 213 226 232 230 230 259 292 277 270 293 266 276 260 259 298 305 323 260 301 306 304 293 247 262 278 272 288 280 276 284 278 287 283 286 287 285 283 282 286 282 279 282
188 183 208 223 208 255 268 269 275 264 283 272 260 263 291 272 274 285 302 305 296 292 282 278 275 277 279 286 281 279 279 282 285 287 289 289 291 292 293 288 285 285 282
192 210 238 254 261 271 265 265 262 259 252 259 273 275 276 275 271 286 296 301 299 296 292 289 287 285 282 281 285 292 295 295 295 294 293 292 292 293 293 288 286 286 282
180 197 246 258 254 250 234 244 252 247 257 260 247 260 276 285 289 293 296 295 291 290 292 292 293 294 299 304 307 308 301 301 302 302 300 299 298 299 299 295 292 287 283
197 267 244 238 223 220 205 199 229 231 253 273 284 288 288 291 292 291 291 292 296 301 303 308 311 313 316 318 317 317 316 318 317 315 314 315 315 311 303 297 293 291 289
213 210 174 174 185 198 218 230 242 263 286 296 298 292 291 291 294 298 302 310 327 332 335 344 340 336 335 330 327 323 318 317 318 315 317 317 314 312 310 304 296 289 282
167 142 147 163 198 219 210 194 225 300 312 336 321 319 316 323 336 344 353 346 347 349 346 341 334 331 330 331 330 322 318 315 318 319 319 315 316 313 309 308 297 289 284
190 170 19 6 2 2 342 346 340 331 331 351 352 343 345 7 30 36 11 349 347 340 338 332 329 326 326 330 326 320 318 318 324 328 323 315 316 314 312 312 310 300 292
34 54 29 183 91 351 328 315 311 307 310 320 333 1 350 1 358 349 353 343 336 332 332 321 318 319 321 327 331 324 317 320 328 334 319 319 315 310 318 311 304 305 305
31 72 122 289 334 314 329 334 315 292 299 310 300 313 321 334 339 338 329 326 322 322 321 320 318 313 315 320 320 319 323 327 333 334 327 323 318 318 318 309 301 307 317
220 261 300 324 308 306 326 327 313 297 282 192 228 273 307 322 322 324 319 325 324 325 329 330 328 325 325 322 328 331 326 325 334 328 317 317 317 318 308 300 294 299 297
225 271 291 296 309 313 320 333 325 296 275 298 315 324 327 323 323 323 324 324 318 320 330 337 348 342 343 333 331 330 332 332 335 333 328 324 321 318 322 325 322 307 302
241 257 268 286 300 301 311 315 317 328 328 314 297 297 302 310 314 316 319 316 314 317 331 342 345 345 339 335 333 333 338 341 343 343 343 343 341 343 345 332 336 334 326
260 270 272 271 275 272 291 299 301 306 303 291 284 291 303 311 309 312 317 316 311 318 335 338 333 338 325 335 333 335 336 336 337 337 339 340 335 335 326 333 348 347 351